| time (UTC) | temp C | wind direction | speed KPH | gust KPH | rain 1hr cm | rain 24hr cm | rain mn cm | humidity % | barometer mb |
| 20260506041606 | 13 | 283 | 1.6 | 6.4 | 0.00 | 0.00 | 0.00 | 81 | 1017.3 |
| 20260506040100 | 13 | 283 | 1.6 | 6.4 | 0.00 | 0.00 | 0.00 | 81 | 1017.0 |
| 20260506034601 | 13 | 283 | 1.6 | 6.4 | 0.00 | 0.00 | 0.00 | 81 | 1016.9 |
| 20260506033058 | 13 | 314 | 1.6 | 9.7 | 0.00 | 0.00 | 0.00 | 81 | 1016.6 |
| 20260506031600 | 13 | 254 | 3.2 | 8.0 | 0.00 | 0.00 | 0.00 | 81 | 1016.5 |
| 20260506030058 | 13 | 266 | 3.2 | 6.4 | 0.00 | 0.00 | 0.00 | 81 | 1016.4 |
| 20260506024605 | 13 | 305 | 1.6 | 6.4 | 0.00 | 0.00 | 0.00 | 79 | 1016.1 |
| 20260506023103 | 15 | 280 | 4.8 | 8.0 | 0.00 | 0.00 | 0.00 | 77 | 1015.9 |
| 20260506021559 | 15 | 256 | 3.2 | 8.0 | 0.00 | 0.00 | 0.00 | 75 | 1015.8 |
| 20260506020110 | 15 | 257 | 4.8 | 9.7 | 0.00 | 0.00 | 0.00 | 75 | 1015.8 |
| 20260506014611 | 15 | 290 | 1.6 | 8.0 | 0.00 | 0.00 | 0.00 | 75 | 1015.8 |
| 20260506013056 | 15 | 285 | 1.6 | 6.4 | 0.00 | 0.00 | 0.00 | 74 | 1015.9 |
| 20260506011623 | 15 | 267 | 1.6 | 8.0 | 0.00 | 0.00 | 0.00 | 74 | 1015.8 |
| 20260506010057 | 15 | 270 | 4.8 | 12.9 | 0.00 | 0.00 | 0.00 | 73 | 1015.7 |
| 20260506004606 | 15 | 265 | 3.2 | 9.7 | 0.00 | 0.00 | 0.00 | 74 | 1015.7 |
| 20260506003058 | 15 | 271 | 6.4 | 16.1 | 0.00 | 0.00 | 0.00 | 75 | 1015.6 |
| 20260506001602 | 15 | 240 | 8.0 | 12.9 | 0.00 | 0.00 | 0.00 | 72 | 1015.4 |
| 20260506000120 | 15 | 267 | 8.0 | 17.7 | 0.00 | 0.00 | 0.00 | 72 | 1015.4 |
| 20260505234558 | 15 | 283 | 11.3 | 19.3 | 0.00 | 0.00 | 0.00 | 74 | 1015.4 |
| 20260505233102 | 15 | 293 | 6.4 | 16.1 | 0.00 | 0.00 | 0.00 | 72 | 1015.6 |
| 20260505231613 | 16 | 287 | 8.0 | 14.5 | 0.00 | 0.00 | 0.00 | 73 | 1015.6 |
| 20260505230109 | 15 | 314 | 4.8 | 16.1 | 0.00 | 0.00 | 0.00 | 74 | 1015.5 |
| 20260505224600 | 15 | 234 | 6.4 | 14.5 | 0.00 | 0.00 | 0.00 | 74 | 1015.6 |
| 20260505223101 | 16 | 257 | 4.8 | 16.1 | 0.00 | 0.00 | 0.00 | 72 | 1015.6 |
| 20260505221601 | 16 | 274 | 8.0 | 16.1 | 0.00 | 0.00 | 0.00 | 70 | 1015.8 |
| 20260505220058 | 16 | 248 | 1.6 | 14.5 | 0.00 | 0.00 | 0.00 | 69 | 1015.7 |
| 20260505214556 | 16 | 257 | 4.8 | 12.9 | 0.00 | 0.00 | 0.00 | 70 | 1015.9 |
| 20260505213057 | 15 | 278 | 6.4 | 14.5 | 0.00 | 0.00 | 0.00 | 73 | 1016.0 |
| 20260505211558 | 15 | 243 | 6.4 | 12.9 | 0.00 | 0.00 | 0.00 | 73 | 1016.1 |
| 20260505210057 | 15 | 250 | 6.4 | 16.1 | 0.00 | 0.00 | 0.00 | 72 | 1016.0 |
| 20260505204602 | 15 | 0 | 1.6 | 14.5 | 0.00 | 0.00 | 0.00 | 74 | 1015.9 |
| 20260505203102 | 15 | 226 | 8.0 | 17.7 | 0.00 | 0.00 | 0.00 | 70 | 1015.9 |
| 20260505201600 | 16 | 290 | 4.8 | 11.3 | 0.00 | 0.00 | 0.00 | 71 | 1015.9 |
| 20260505200056 | 16 | 261 | 8.0 | 16.1 | 0.00 | 0.00 | 0.00 | 70 | 1016.1 |
| 20260505194617 | 16 | 276 | 4.8 | 11.3 | 0.00 | 0.00 | 0.00 | 71 | 1016.1 |
| 20260505193106 | 15 | 321 | 4.8 | 11.3 | 0.00 | 0.00 | 0.00 | 75 | 1016.2 |
| 20260505191608 | 15 | 278 | 4.8 | 16.1 | 0.00 | 0.00 | 0.00 | 72 | 1016.2 |
| 20260505190057 | 15 | 266 | 3.2 | 16.1 | 0.00 | 0.00 | 0.00 | 78 | 1016.1 |
| 20260505184556 | 13 | 260 | 4.8 | 11.3 | 0.00 | 0.00 | 0.00 | 82 | 1016.1 |
| 20260505183057 | 13 | 262 | 4.8 | 9.7 | 0.00 | 0.00 | 0.00 | 82 | 1016.2 |
| 20260505181558 | 13 | 243 | 1.6 | 12.9 | 0.00 | 0.00 | 0.00 | 84 | 1016.1 |
| 20260505180100 | 13 | 249 | 3.2 | 11.3 | 0.00 | 0.00 | 0.00 | 84 | 1016.0 |
| 20260505174558 | 13 | 297 | 3.2 | 12.9 | 0.00 | 0.00 | 0.00 | 86 | 1015.8 |
| 20260505173113 | 12 | 307 | 1.6 | 9.7 | 0.00 | 0.00 | 0.00 | 88 | 1015.7 |
| 20260505171625 | 12 | 285 | 1.6 | 8.0 | 0.00 | 0.00 | 0.00 | 89 | 1015.7 |
| 20260505170055 | 12 | 290 | 4.8 | 9.7 | 0.00 | 0.00 | 0.00 | 88 | 1015.7 |
| 20260505164604 | 12 | 0 | 0.0 | 3.2 | 0.00 | 0.00 | 0.00 | 87 | 1015.6 |
| 20260505163058 | 12 | 284 | 0.0 | 4.8 | 0.00 | 0.00 | 0.00 | 87 | 1015.6 |
| 20260505161602 | 12 | 262 | 0.0 | 9.7 | 0.00 | 0.00 | 0.00 | 87 | 1015.5 |
| 20260505153103 | 11 | 289 | 1.6 | 8.0 | 0.00 | 0.00 | 0.00 | 88 | 1015.3 |
| 20260505151600 | 11 | 305 | 1.6 | 6.4 | 0.00 | 0.00 | 0.00 | 89 | 1015.1 |
| 20260505150120 | 11 | 309 | 0.0 | 3.2 | 0.00 | 0.00 | 0.00 | 89 | 1015.1 |
| 20260505130111 | 10 | 178 | 1.6 | 3.2 | 0.00 | 0.00 | 0.00 | 90 | 1014.3 |
| 20260505124618 | 10 | 0 | 1.6 | 6.4 | 0.00 | 0.00 | 0.00 | 92 | 1014.6 |
| 20260505123116 | 10 | 277 | 0.0 | 1.6 | 0.00 | 0.00 | 0.00 | 92 | 1014.6 |
| 20260505121623 | 10 | 0 | 0.0 | 4.8 | 0.00 | 0.00 | 0.00 | 92 | 1014.4 |
| 20260505120057 | 10 | 293 | 0.0 | 3.2 | 0.00 | 0.00 | 0.00 | 92 | 1014.4 |
| 20260505114555 | 10 | 0 | 0.0 | 0.0 | 0.00 | 0.00 | 0.00 | 92 | 1014.5 |
| 20260505113103 | 10 | 0 | 0.0 | 0.0 | 0.00 | 0.00 | 0.00 | 91 | 1014.7 |
| 20260505111556 | 10 | 313 | 0.0 | 3.2 | 0.00 | 0.00 | 0.00 | 91 | 1014.7 |
| 20260505101559 | 10 | 312 | 1.6 | 4.8 | 0.00 | 0.00 | 0.00 | 87 | 1014.5 |
| 20260505100136 | 10 | 262 | 3.2 | 6.4 | 0.00 | 0.00 | 0.00 | 87 | 1014.6 |
| 20260505094555 | 10 | 266 | 3.2 | 4.8 | 0.00 | 0.00 | 0.00 | 88 | 1014.8 |
| 20260505093058 | 10 | 0 | 0.0 | 1.6 | 0.00 | 0.00 | 0.00 | 88 | 1015.1 |
| 20260505091618 | 10 | 311 | 0.0 | 1.6 | 0.00 | 0.00 | 0.00 | 87 | 1015.1 |
| 20260505090104 | 10 | 0 | 0.0 | 1.6 | 0.00 | 0.00 | 0.00 | 83 | 1015.3 |
| 20260505084603 | 10 | 0 | 0.0 | 1.6 | 0.00 | 0.00 | 0.00 | 81 | 1015.4 |
| 20260505083056 | 10 | 0 | 0.0 | 3.2 | 0.00 | 0.00 | 0.00 | 82 | 1015.5 |
| 20260505081558 | 10 | 271 | 0.0 | 6.4 | 0.00 | 0.00 | 0.00 | 83 | 1015.5 |
| 20260505080059 | 10 | 277 | 3.2 | 9.7 | 0.00 | 0.00 | 0.00 | 83 | 1015.7 |
| 20260505074609 | 11 | 281 | 1.6 | 4.8 | 0.00 | 0.00 | 0.00 | 83 | 1015.9 |
| 20260505073102 | 11 | 285 | 1.6 | 6.4 | 0.00 | 0.00 | 0.00 | 82 | 1015.9 |
| 20260505071557 | 11 | 300 | 1.6 | 6.4 | 0.00 | 0.00 | 0.00 | 82 | 1015.6 |
| 20260505070058 | 11 | 296 | 3.2 | 6.4 | 0.00 | 0.00 | 0.00 | 82 | 1015.5 |
| 20260505064608 | 11 | 309 | 1.6 | 3.2 | 0.00 | 0.00 | 0.00 | 82 | 1015.3 |
| 20260505063055 | 11 | 314 | 1.6 | 4.8 | 0.00 | 0.00 | 0.00 | 82 | 1015.2 |
| 20260505061556 | 11 | 298 | 0.0 | 4.8 | 0.00 | 0.00 | 0.00 | 82 | 1015.1 |
| 20260505060055 | 11 | 290 | 1.6 | 8.0 | 0.00 | 0.00 | 0.00 | 82 | 1015.0 |
| 20260505054618 | 11 | 253 | 3.2 | 8.0 | 0.00 | 0.00 | 0.00 | 83 | 1015.0 |
| 20260505053056 | 11 | 259 | 1.6 | 8.0 | 0.00 | 0.00 | 0.00 | 83 | 1015.3 |
| 20260505051557 | 11 | 293 | 4.8 | 11.3 | 0.00 | 0.00 | 0.00 | 82 | 1015.4 |